SCP
0 0 0 0 -0 -0 -0 -0 -0 -0 -0 -0 -0 -0 -0 -0 -0 -0 0 0 0 0 0 -0 -0 -0 -0 -0 -0 -0 -0 -0 -0
-0 0 0 0 0 0 -0 -0 -0 -0 -0 -0 -0 -0 -0 -0 -0 -0 0 0 0 0 0 0 -0 -0 -0 -0 -0 -0 -0 -0 -0
0 0 0 0 0 -0 -0 -0 -0 -0 -0 -0 -0 -0 -0 -0 -0 0 0 0 0 0 0 0 0 0 0 0 0 -0 -0 -0 -0
-0 0 0 0 -0 0 0 -0 -0 -0 -0 -0 -0 -0 -0 -0 -0 0 0 0 0 0 0 0 0 0 0 0 0 0 0 0 0
0 -0 0 -0 0 0 -0 -1 -0 -0 -0 -0 -0 -0 -0 -1 -0 -0 -0 -0 0 0 -0 0 0 0 0 0 0 0 0 0 0
0 0 -0 -0 0 -0 0 -0 -0 -0 -1 -1 -0 -0 -0 -0 -0 -0 0 0 0 0 0 -0 -0 -0 0 0 0 1 1 0 0
-0 0 0 0 0 -0 -0 -0 -0 -0 0 0 0 0 0 0 0 0 0 0 0 0 0 -0 -0 0 0 0 1 1 1 1 1
0 -0 0 -0 -0 -0 -0 -1 -1 -0 -0 -0 -0 -0 0 0 0 0 0 0 0 0 0 0 0 0 0 0 1 1 1 1 1
0 -0 -0 -0 -1 -0 -1 -1 -0 -1 -0 -0 0 -0 -0 0 0 0 0 0 0 0 0 0 0 1 1 0 0 0 0 0 0
-0 -0 -0 -1 -1 -0 -0 -0 -0 -0 -0 0 0 0 0 0 0 0 0 0 0 0 0 0 0 0 0 0 0 0 0 0 0
-0 -0 -0 -0 -1 -1 -0 -0 -0 -0 0 0 0 0 0 0 0 0 0 0 0 0 0 0 0 0 0 0 0 0 0 0 0
-0 -0 -0 -0 -0 -0 -0 -0 0 0 0 0 0 0 0 0 0 0 0 0 0 0 0 0 0 0 0 0 0 0 0 0 0
-0 -0 -0 -0 -0 -0 -0 0 0 0 0 0 0 0 0 0 0 0 0 0 0 0 0 0 0 0 0 0 0 0 0 0 0
-0 -0 -0 -0 -0 -0 0 0 0 0 0 0 0 0 0 0 0 0 0 0 0 0 0 0 0 0 0 0 0 0 0 0 0
-0 -0 -0 -0 0 0 0 0 0 0 0 0 0 0 0 0 0 0 0 0 0 0 0 0 0 0 0 0 0 0 0 0 0
-0 -0 -0 0 -0 0 0 0 0 0 0 0 0 0 0 0 0 0 0 0 0 0 0 0 0 0 0 0 0 0 0 0 0
-0 -0 -0 0 0 0 0 0 0 0 0 0 0 0 0 0 0 0 0 0 0 0 0 0 0 0 0 0 0 0 0 0 0
-0 -0 0 0 0 0 0 0 0 0 0 0 0 0 0 0 0 0 0 0 0 0 0 0 0 0 0 0 0 0 0 0 0
-0 -0 0 0 0 0 0 0 0 0 0 0 0 0 0 0 0 0 0 0 0 0 0 0 0 0 0 0 0 0 0 0 0
0 0 0 0 0 0 0 0 0 0 0 0 0 0 0 0 0 0 0 0 0 0 0 0 0 0 0 0 0 0 0 0 0
Wind_Speed_500mb
21 23 48 62 67 57 51 54 50 52 62 68 65 60 57 50 45 39 43 41 37 38 33 25 20 18 18 20 30 31 28 32 33
19 24 20 15 37 58 59 58 53 59 58 58 60 56 50 48 51 44 36 37 44 48 38 31 29 27 25 26 27 32 31 30 31
26 30 25 25 22 31 58 79 63 58 60 56 58 55 48 50 52 46 41 36 38 46 50 45 36 28 28 29 32 30 32 32 28
26 28 29 37 50 75 72 91 85 72 68 62 62 62 56 61 53 51 46 45 42 41 44 42 43 43 40 39 39 37 34 36 30
15 24 39 43 61 68 69 95 93 79 72 70 66 61 56 58 54 52 49 46 37 31 35 39 40 39 41 45 50 53 44 44 38
11 9 36 49 38 31 40 77 78 72 69 69 63 57 55 37 37 39 37 32 30 28 29 30 32 34 36 36 36 43 53 50 47
28 9 29 24 29 33 30 30 48 47 43 35 28 25 30 29 27 31 31 30 29 34 39 41 44 37 37 40 40 42 46 52 52
35 11 47 47 44 44 47 46 44 40 33 28 25 27 23 26 36 48 51 51 39 37 30 31 31 38 37 38 39 43 46 49 55
43 36 54 42 42 43 47 44 42 36 30 24 23 28 19 10 9 19 21 21 23 27 31 30 29 28 32 37 38 38 41 42 39
58 47 61 56 46 35 35 30 26 25 20 18 19 21 17 14 13 16 20 20 17 21 25 29 26 28 31 31 31 32 36 36 33
41 42 59 49 49 45 33 25 17 14 16 15 12 11 11 9 9 11 14 17 19 17 16 17 19 19 19 22 27 32 32 29 29
43 41 66 64 55 42 33 22 19 16 14 12 11 10 11 13 14 16 17 18 20 22 23 24 25 24 23 23 24 29 30 26 23
51 68 77 69 54 41 28 23 14 14 11 9 9 11 15 17 16 16 14 12 13 12 8 6 12 17 22 28 30 32 33 32 31
65 87 80 66 48 36 26 17 13 10 7 9 11 13 12 9 6 8 13 16 13 9 6 8 12 10 9 9 11 15 20 21 23
93 86 73 59 50 36 26 17 13 11 11 10 9 4 4 11 16 18 18 15 12 14 13 15 18 19 19 21 22 24 26 27 26
87 74 63 52 42 34 25 18 13 12 8 5 4 11 17 14 11 9 7 7 8 13 16 23 28 33 28 24 22 21 21 22 23
86 76 67 56 42 35 31 24 17 11 4 4 12 15 9 6 6 3 3 5 2 5 18 23 27 28 30 29 26 25 26 27 25
87 77 67 54 43 37 28 21 11 5 2 9 18 14 8 2 6 10 11 7 2 6 14 16 24 26 27 27 29 36 38 35 31
90 80 67 52 40 39 29 17 8 6 6 12 17 10 8 7 11 9 9 14 20 18 16 13 17 18 21 27 32 33 33 32 32
92 76 64 52 45 36 26 18 14 10 14 22 20 12 14 14 21 30 38 32 26 29 18 19 20 17 26 35 35 29 30 29 28
Wind_Direction_500mb
159 185 204 216 214 210 214 220 214 213 218 219 219 223 230 234 236 235 236 234 239 250 253 257 274 286 297 251 241 247 237 238 242
154 141 179 224 220 234 228 218 218 216 218 223 220 223 225 230 232 232 237 244 240 242 247 248 264 269 278 250 278 252 250 247 244
170 121 197 232 210 248 241 237 229 220 221 222 228 229 231 238 239 243 244 249 253 244 246 251 249 254 256 265 270 266 246 255 252
170 148 174 223 240 285 250 236 235 234 227 232 236 240 245 244 252 252 252 253 263 253 248 245 248 256 265 264 271 267 258 257 260
96 173 168 220 268 273 233 229 231 233 234 238 241 246 251 254 258 257 255 260 260 260 252 250 257 259 263 265 267 260 260 260 261
275 261 241 259 253 230 211 223 224 232 237 241 244 253 252 256 255 256 257 274 273 270 267 261 258 256 258 266 277 265 259 262 262
201 256 235 200 175 125 141 175 212 222 227 221 216 222 232 244 256 260 269 275 279 271 273 276 259 268 270 267 275 276 265 264 262
204 206 161 159 126 126 130 141 152 164 171 185 198 213 229 247 250 246 252 260 255 251 261 277 273 261 261 263 263 266 268 262 264
193 171 156 135 140 139 133 140 147 159 162 175 189 202 205 185 198 208 206 199 207 225 242 251 258 254 257 267 272 277 278 276 275
183 162 154 152 153 154 154 153 153 163 173 195 211 225 242 249 255 247 250 258 267 270 264 270 267 267 261 265 272 275 276 280 281
181 160 163 163 167 169 169 177 187 205 210 221 229 239 251 258 262 262 262 267 275 280 279 275 275 281 280 272 269 276 285 282 281
198 187 174 175 176 174 169 173 180 195 216 233 245 255 272 282 285 285 282 281 281 282 282 281 279 282 283 285 277 270 272 274 285
172 174 178 172 170 164 164 159 182 210 220 229 253 282 295 302 308 307 314 318 320 333 348 323 292 281 277 272 276 280 283 280 274
176 172 169 164 163 166 165 177 188 210 230 249 272 286 291 311 355 47 56 63 72 78 51 37 39 32 21 342 316 309 314 318 300
168 163 160 163 162 167 176 182 196 207 230 269 291 308 73 95 97 82 80 85 63 48 19 355 343 329 311 305 309 312 310 310 313
162 160 163 166 166 164 174 189 212 237 250 263 170 128 131 128 125 129 96 92 88 26 17 22 49 53 50 40 26 14 357 339 321
166 168 166 163 165 167 172 189 208 228 239 158 146 149 136 123 154 156 22 349 52 17 28 65 55 56 51 45 39 26 16 10 3
171 169 167 169 168 167 174 182 198 231 128 158 167 165 153 199 289 281 290 262 178 57 55 58 42 43 31 23 21 14 3 359 357
172 169 167 168 172 174 172 173 188 201 181 171 175 171 151 88 40 45 80 102 116 90 84 42 32 27 12 3 350 337 336 339 340
173 170 174 176 176 172 169 175 178 187 165 161 160 136 109 71 67 94 102 110 114 100 54 62 51 28 352 350 347 347 351 350 340
Wind_Speed_850mb
21 23 48 62 67 57 51 54 50 52 62 68 65 60 57 50 45 39 43 41 37 38 33 25 20 18 18 20 30 31 28 32 33
19 24 20 15 37 58 59 58 53 59 58 58 60 56 50 48 51 44 36 37 44 48 38 31 29 27 25 26 27 32 31 30 31
26 30 25 25 22 31 58 79 63 58 60 56 58 55 48 50 52 46 41 36 38 46 50 45 36 28 28 29 32 30 32 32 28
26 28 29 37 50 75 72 91 85 72 68 62 62 62 56 61 53 51 46 45 42 41 44 42 43 43 40 39 39 37 34 36 30
15 24 39 43 61 68 69 95 93 79 72 70 66 61 56 58 54 52 49 46 37 31 35 39 40 39 41 45 50 53 44 44 38
11 9 36 49 38 31 40 77 78 72 69 69 63 57 55 37 37 39 37 32 30 28 29 30 32 34 36 36 36 43 53 50 47
28 9 29 24 29 33 30 30 48 47 43 35 28 25 30 29 27 31 31 30 29 34 39 41 44 37 37 40 40 42 46 52 52
35 11 47 47 44 44 47 46 44 40 33 28 25 27 23 26 36 48 51 51 39 37 30 31 31 38 37 38 39 43 46 49 55
43 36 54 42 42 43 47 44 42 36 30 24 23 28 19 10 9 19 21 21 23 27 31 30 29 28 32 37 38 38 41 42 39
58 47 61 56 46 35 35 30 26 25 20 18 19 21 17 14 13 16 20 20 17 21 25 29 26 28 31 31 31 32 36 36 33
41 42 59 49 49 45 33 25 17 14 16 15 12 11 11 9 9 11 14 17 19 17 16 17 19 19 19 22 27 32 32 29 29
43 41 66 64 55 42 33 22 19 16 14 12 11 10 11 13 14 16 17 18 20 22 23 24 25 24 23 23 24 29 30 26 23
51 68 77 69 54 41 28 23 14 14 11 9 9 11 15 17 16 16 14 12 13 12 8 6 12 17 22 28 30 32 33 32 31
65 87 80 66 48 36 26 17 13 10 7 9 11 13 12 9 6 8 13 16 13 9 6 8 12 10 9 9 11 15 20 21 23
93 86 73 59 50 36 26 17 13 11 11 10 9 4 4 11 16 18 18 15 12 14 13 15 18 19 19 21 22 24 26 27 26
87 74 63 52 42 34 25 18 13 12 8 5 4 11 17 14 11 9 7 7 8 13 16 23 28 33 28 24 22 21 21 22 23
86 76 67 56 42 35 31 24 17 11 4 4 12 15 9 6 6 3 3 5 2 5 18 23 27 28 30 29 26 25 26 27 25
87 77 67 54 43 37 28 21 11 5 2 9 18 14 8 2 6 10 11 7 2 6 14 16 24 26 27 27 29 36 38 35 31
90 80 67 52 40 39 29 17 8 6 6 12 17 10 8 7 11 9 9 14 20 18 16 13 17 18 21 27 32 33 33 32 32
92 76 64 52 45 36 26 18 14 10 14 22 20 12 14 14 21 30 38 32 26 29 18 19 20 17 26 35 35 29 30 29 28
Wind_Direction_850mb
159 185 204 216 214 210 214 220 214 213 218 219 219 223 230 234 236 235 236 234 239 250 253 257 274 286 297 251 241 247 237 238 242
154 141 179 224 220 234 228 218 218 216 218 223 220 223 225 230 232 232 237 244 240 242 247 248 264 269 278 250 278 252 250 247 244
170 121 197 232 210 248 241 237 229 220 221 222 228 229 231 238 239 243 244 249 253 244 246 251 249 254 256 265 270 266 246 255 252
170 148 174 223 240 285 250 236 235 234 227 232 236 240 245 244 252 252 252 253 263 253 248 245 248 256 265 264 271 267 258 257 260
96 173 168 220 268 273 233 229 231 233 234 238 241 246 251 254 258 257 255 260 260 260 252 250 257 259 263 265 267 260 260 260 261
275 261 241 259 253 230 211 223 224 232 237 241 244 253 252 256 255 256 257 274 273 270 267 261 258 256 258 266 277 265 259 262 262
201 256 235 200 175 125 141 175 212 222 227 221 216 222 232 244 256 260 269 275 279 271 273 276 259 268 270 267 275 276 265 264 262
204 206 161 159 126 126 130 141 152 164 171 185 198 213 229 247 250 246 252 260 255 251 261 277 273 261 261 263 263 266 268 262 264
193 171 156 135 140 139 133 140 147 159 162 175 189 202 205 185 198 208 206 199 207 225 242 251 258 254 257 267 272 277 278 276 275
183 162 154 152 153 154 154 153 153 163 173 195 211 225 242 249 255 247 250 258 267 270 264 270 267 267 261 265 272 275 276 280 281
181 160 163 163 167 169 169 177 187 205 210 221 229 239 251 258 262 262 262 267 275 280 279 275 275 281 280 272 269 276 285 282 281
198 187 174 175 176 174 169 173 180 195 216 233 245 255 272 282 285 285 282 281 281 282 282 281 279 282 283 285 277 270 272 274 285
172 174 178 172 170 164 164 159 182 210 220 229 253 282 295 302 308 307 314 318 320 333 348 323 292 281 277 272 276 280 283 280 274
176 172 169 164 163 166 165 177 188 210 230 249 272 286 291 311 355 47 56 63 72 78 51 37 39 32 21 342 316 309 314 318 300
168 163 160 163 162 167 176 182 196 207 230 269 291 308 73 95 97 82 80 85 63 48 19 355 343 329 311 305 309 312 310 310 313
162 160 163 166 166 164 174 189 212 237 250 263 170 128 131 128 125 129 96 92 88 26 17 22 49 53 50 40 26 14 357 339 321
166 168 166 163 165 167 172 189 208 228 239 158 146 149 136 123 154 156 22 349 52 17 28 65 55 56 51 45 39 26 16 10 3
171 169 167 169 168 167 174 182 198 231 128 158 167 165 153 199 289 281 290 262 178 57 55 58 42 43 31 23 21 14 3 359 357
172 169 167 168 172 174 172 173 188 201 181 171 175 171 151 88 40 45 80 102 116 90 84 42 32 27 12 3 350 337 336 339 340
173 170 174 176 176 172 169 175 178 187 165 161 160 136 109 71 67 94 102 110 114 100 54 62 51 28 352 350 347 347 351 350 340